User: anonymous   Login
Location: PACMO
(41.3967°N, 90.3760°W)
Time: 04:24:20
(UTC-06:00)
Language:

BREEZE-M DEB (TANK) - Orbit

View from above orbital plane
View from above orbital plane
View from above satellite
View from above satellite

Ground track
Ground track

The orbit data is extracted from the following two-line orbital elements,

1 31863U 07032B   17054.33343804  .00000236  00000-0  20623-3 0  9995
2 31863  45.9667  72.5615 4982499 271.0352  34.7295  5.52069964193235
Epoch (UTC): 23 February 2017 08:00:09
Eccentricity: 0.4982499
inclination: 45.9667°
perigee height: 407 km
apogee height: 13882 km
right ascension of ascending node: 72.5615°
argument of perigee: 271.0352°
revolutions per day: 5.52069964
mean anomaly at epoch: 34.7295°
orbit number at epoch: 19323

The dashed part of the orbit path shows where the satellite is in the earth's shadow,  

DLR